STARLINK-2602 (48393 NORAD) Tracking and Keplerian Element Data

This shows tracking and keplerian element data for the satellite.

Feedback or suggestion? Click here.




ElementValue
Catalog48393
NameSTARLINK-2602
Epoch Orbit1475
Epoch Day215.25002315
Epoch Year2021
RAAN320.9053
Inclination53.0519
Eccentricity0.0001427
Argument of Perigee78.7714
Mean Anonmoly223.7134
Mean Motion15.06394051
Decay Rate9.68E-06
L11 48393U 21038AS 21215.25002315 .00000968 00000-0 83883-4 0 9997
L22 48393 53.0519 320.9053 0001427 78.7714 223.7134 15.06394051 14755

Live tracking and technical data element details for STARLINK-2602 (NORAD 48393). STARLINK-2602 can be tracked NOW for your location showing map with azimuth and elevation plus other details from your city location.

Track the satellite on the map from your city or location and see movement details for azimuth, elevation, latitude, longitude, range, height, and movement on the map or in text.







IsCatalogInMostPopularTable: catalog: 48393, numindb: 25
Update: records affected: 1



GetName: 48393 STARLINK-2602

Hit Count: updated at: Wed, 04 Aug 2021 00:52:49 GMT